Flag for Norway Weather past 2 weeks in Bryne, Norway

Now
60 °F

Cool.


Feels Like: 60 °F
Forecast: 50 / 62 °F
Wind: 3 mph from Southwest

Location: Obrestad

Current Time: Sep 2, 2014 at 12:10:05 PM

Latest Report: Sep 2, 2014 at 11:00 AM


Visibility: N/A

Pressure: 30.24 "Hg

Humidity: 88%

Dew point: 56 °F

Location of BryneLocation

Historic Weather in Bryne — Graph

°F

Bryne temperature yesterday

Maximum temperature yesterday: 61 °F (at 1:00 PM)
Minimum temperature yesterday: 57 °F (at 5:00 AM)
Average temperature yesterday: 59 °F

Past Weeks' High & Low Weather Summary

 TemperatureHumidityPressure
High63 °F (Aug 31, 5:00 PM)97% (Aug 27, 4:00 AM)30.24 "Hg (Aug 27, 4:00 AM)
Low48 °F (Aug 22, 6:00 AM)64% (Aug 21, 2:00 PM)29.21 "Hg (Aug 18, 11:00 AM)
Average56 °F84%29.77 "Hg
* Reported Aug 18 11:00 AM — Sep 2 11:00 AM, Bryne, Weather by CustomWeather, © 2014

Note: Actual official high and low records may vary slightly from our data, if they occured in-between our weather recording intervals... More about our weather records

Advertising

Bryne weather history for previous 24 hours

 ConditionsComfort  
Time TempWeatherWind HumidityBarometerVisibility
11:00 AM
Sep 2
60 °FCool.3 mph88%30.24 "HgN/A
10:00 AM60 °FCool.2 mph88%30.23 "HgN/A
9:00 AM59 °FCool.2 mph89%30.22 "HgN/A
8:00 AM59 °FCool.2 mph91%30.21 "HgN/A
7:00 AM58 °FCool.2 mph94%30.19 "HgN/A
6:00 AM58 °FCool.5 mph94%30.19 "HgN/A
5:00 AM58 °FCool.5 mph93%30.18 "HgN/A
4:00 AM58 °FCool.6 mph92%30.18 "HgN/A
3:00 AM58 °FCool.6 mph91%30.18 "HgN/A
2:00 AM58 °FCool.6 mph90%30.17 "HgN/A
1:00 AM58 °FCool.6 mph90%30.17 "HgN/A
12:00 AM58 °FCool.6 mph87%30.16 "HgN/A
11:00 PM
Sep 1
59 °FCool.6 mph86%30.16 "HgN/A
10:00 PM59 °FCool.9 mph87%30.16 "HgN/A
9:00 PM60 °FCool.8 mph85%30.14 "HgN/A
8:00 PM60 °FCool.8 mph84%30.13 "HgN/A
7:00 PM60 °FCool.8 mph79%30.13 "HgN/A
6:00 PM61 °FCool.9 mph80%30.13 "HgN/A
5:00 PM60 °FCool.10 mph80%30.13 "HgN/A
4:00 PM60 °FCool.10 mph82%30.13 "HgN/A
3:00 PM58 °FCool.7 mph86%30.14 "HgN/A
2:00 PM59 °FCool.10 mph82%30.13 "HgN/A
1:00 PM61 °FCool.9 mph73%30.13 "HgN/A
12:00 PM60 °FCool.7 mph74%30.13 "HgN/A
Weather by CustomWeather, © 2014

See weather overviewHow to use our weather pages